sat.trackr.live / text

‹ back to catalog

STARLINK-37300

NORAD 68682 · 2026-077W

PAYLOAD ACTIVE UNKNOWN

§ Identity

Operator
Country
US
Launch date
2026-04-11
Launch site
AFWTR
Launch vehicle
Mass (kg)
RCS (m²)

Purposes: comms

External: N2YO · Heavens-Above · Gunter

§ Orbital elements

Epoch: 2026-09-19T21:14:06.588672Z

Period
93.90 min
Inclination
97.2863°
Eccentricity
0.0002580
Mean motion
15.33572642 rev/d
Perigee alt
463.4 km
Apogee alt
466.9 km
Semi-major
6,843.3 km
B*
1.1437e-3
RAAN
132.8657°
Arg perigee
108.3486°
Mean anomaly
251.8037°
Rev number
2,492

§ Raw data

STARLINK-373001 68682U 26077W   26262.88479848  .00037181  00000+0  11437-2 0  99932 68682  97.2863 132.8657 0002580 108.3486 251.8037 15.33572642 24925

JSON: /api/v1/satellites/68682 · /tle

For live sub-satellite position, see the globe view (requires WebGL).

§ Visibility from observer

Set your observer location to see the next 7 days of passes ≥ 10°. The values pass through the URL so the page stays shareable.

No JS? Fill the form by hand. The geolocation button needs JavaScript.